Weather Roundup
Issued by NWS Chicago, IL

Home | Current Version | Previous Version | Graphics & Text | Print | Product List | Glossary On
Versions: 1 2 3 4 5 6 7 8 9 10 11 12 13 14 15 16 17 18 19 20 21 22 23 24 25 26 27 28 29 30 31 32 33 34 35 36 37 38 39 40 41 42 43 44 45 46 47 48 49 50
000
NZUS59 KLOT 230258
HRRLOT

CHICAGO AREA WEATHER ROUNDUP
NATIONAL WEATHER SERVICE CHICAGO/ROMEOVILLE IL
1000 PM CDT TUE JUL 22 2014

NOTE: "FAIR" INDICATES FEW OR NO CLOUDS BELOW 12,000 FEET WITH NO
SIGNIFICANT WEATHER AND/OR OBSTRUCTIONS TO VISIBILITY.

* THESE STATIONS ARE NOT UNDER NWS QUALITY CONTROL. THEY ALSO MAY NOT
  REPORT WEATHER SUCH AS PRECIPITATION OR FOG.

ILZ005-006-012>014-019>023-230400-
NORTHEAST ILLINOIS

CITY           SKY/WX    TMP DP  RH WIND       PRES   REMARKS
OHARE          CLOUDY    84  73  69 SW9       29.94F HX  90
MIDWAY         MOCLDY    85  76  74 SW10      29.95S HX  94
AURORA         MOCLDY    81  74  79 SW10      29.97S HX  86
WAUKEGAN       MOCLDY    82  75  79 VRB6      29.92S HX  89
DUPAGE AIRPORT PTCLDY    81  75  82 SW13      29.96S HX  87
WHEELING       PTCLDY    85  75  72 SW9       29.94F HX  93
NORTHERLY IS   NOT AVBL
$$

WIZ051-052-058>065-066-070>072-230400-
SOUTHEAST WISCONSIN

CITY           SKY/WX    TMP DP  RH WIND       PRES   REMARKS
MILWAUKEE      MOCLDY    82  66  58 N16G23    29.95R HX  84
KENOSHA*       MOCLDY    82  75  79 NW9       29.94R HX  89
RACINE*        CLOUDY    84  66  54 N15G24    29.96R HX  86
$$

INZ001>003-010>013-019-020-230400-
NORTHWEST INDIANA

CITY           SKY/WX    TMP DP  RH WIND       PRES   REMARKS
GARY*            N/A     82  73  74 SW8       29.96S HX  88
MICHIGAN CITY* NOT AVBL
RENSSELAER*    NOT AVBL
$$

LMZ740>746-230400-
SOUTHERN LAKE MICHIGAN

STATION/POSITION TIME  SKY/WX   TEMP WIND        PRES    VSBY
                                AIR  DIR/SP/G
                 (UTC)          (F)  (DEG/KT/KT) (MB)    (MI)
HARRISON CRIB    0200            83  220/ 17/ 25   N/A
BURNHAM HARBOR   0200            84  250/  4/ 13   N/A
CALUMET HARBOR   0200            82  200/  7/ 10 1013.3R
BURNS HARBOR     0200            82  210/ 11/ 14 1014.9S
MICHIGAN CITY    0200            81  180/ 11/ 14   N/A
$$

ABBREVIATIONS USED IN REMARKS
   TC - TEMPERATURE IN CELSIUS
  WCI - WIND CHILL INDEX
   HX - HEAT INDEX
  VSB - VISIBILITY
$$



USA.gov is the U.S. government's official web portal to all federal, state and local government web resources and services.